Showing default

GALILEO 6 (262), 40129

Orbit data source: Space-Track

GALILEO 6 (262), 40129 is a payload satellite owned by GNSS Agency (ESA) in MEO that was launched on Fri, 22 Aug 2014 UTC via a SOYUZ-ST-B launch vehicle from the French Guiana (FRGUI). Payload-class satellites include a variety of spacecraft equipped with specific instruments for various scientific and technological missions. These include communications satellites like Starlink; space stations such as the ISS; scientific satellites like the Hubble; Earth observation satellites from companies like Planet Labs, Umbra, and HawkEye 360; GPS; miniature CubeSats for education and research; and military/defense satellites.

Loading next visibility...
Identifier
40129, 2014-050B
Orbit
MEO
Country
Flag of ESAESA
Related business
Manufacturer
OHB
Mission
On reserve Civil Navigation
Bus & Motor
GALILEOSAT, AOCS
Mass
733 kg wet, 700 kg dry
Launch date (UTC)
2014-08-22 (11 years ago)
Launch vehicle
SOYUZ-ST-B
Launch site
French Guiana (FRGUI)
Object type
Payload
Rocket body
Debris
Shape & HBR
Box + 2 Pan, 7.3 m
Radar Cross Section
9.223 m², Large (>1 m²)

Expand to show TLE details & history
Last TLE update: 3 days ago

TLE from 3 days ago
0 GALILEO 6 (262)
1 40129U 14050B   25288.43450464 -.00000035  00000-0  00000-0 0  9990
2 40129  49.1593 282.5200 1643086 170.8228 192.6026  1.85520256 75949
Epoch: 2025-10-15T10:25Z
TLE epoch observation values (Epoch: 2025-10-15T10:25:41.200Z)
Latitude
-0.00004°
Longitude
101.88756°
Altitude
26,106.226 km
Speed
3.209 km/s
True Right ascension
18h 50m 04s
True Declination
0° 00' 00"
Sunlit
Object was in daylight at epoch
Visualization orbit readout
Latitude
Unknown
Longitude
Unknown
Altitude
Unknown
Speed
Unknown
Apparent Right ascension
Unknown
Apparent Declination
Unknown
Sunlit
N/A
Visualization observer readout
Local Sidereal Time
20:06:03
Azimuth
Unknown
Elevation
Unknown
Doppler factor
Unknown
Orbital elements
Apogee altitude
26,196.501 km
Perigee altitude
17,002.558 km
Semi-major axis
27,977.666 km
Eccentricity
0.16431
Inclination
49.1593°
RAAN
282.52°
Arg. of periapsis
170.8228°
True anomaly
189.18566°
Mean anomaly
192.6026°
Eccentric anomaly
190.8332°
Mean motion
0.46379 °/min
Orbital period
776.21 mins
BSTAR
0
Loading maneuver chart data...
Computing Atmospheric mass density...
Loading historical data...
Loading historical data...
Loading historical data...
Loading historical data...
Loading historical data...
Loading historical data...
Loading historical data...
Other satellites on launch #50 in the year 2014 (2014-08-22 UTC)

Documentation

Showing up to 5 results
|